Location: Marsån
(66.4167°N, 22.2833°E)
Time: 11:26:56
(UTC+00:00)

Cosmos 1464 Rocket - Pass Details

Date: 24 February 2024
Orbit: 952 x 1001 km, 82.9° (Epoch: 15 April)

Event Time Altitude Azimuth Distance (km) Brightness Sun altitude
Rises 18:34:00 0° 202° (SSW) 3,662 7.0 -19.4°
Reaches altitude 10° 18:36:31 10° 204° (SSW) 2,711 6.3 -19.6°
Maximum altitude 18:42:44 76° 291° (WNW) 996 4.1 -20.2°
Drops below altitude 10° 18:48:55 10° 17° (NNE) 2,700 6.4 -20.8°
Sets 18:51:26 0° 20° (NNE) 3,647 7.1 -21.0°
